Flag for Canada Weather past 2 weeks in Hamilton, Ontario, Canada

Now
27 °F

Light snow. Overcast.


Feels Like: 23 °F
Forecast: 15 / 25 °F
Wind: 3 mph from West

Location: Hamilton Airport

Current Time: Feb 1, 2015 at 2:38:33 AM

Latest Report: Feb 1, 2015 at 2:00 AM


Visibility: 8 mi

Pressure: 30.19 "Hg

Humidity: 80%

Dew point: 21 °F

Location of HamiltonLocation

Historic Weather in Hamilton — Graph

°F

Hamilton temperature yesterday

Maximum temperature yesterday: 25 °F (at 8:00 PM)
Minimum temperature yesterday: 0 °F (at 12:00 AM)
Average temperature yesterday: 15 °F

Past Weeks' High & Low Weather Summary

 TemperatureHumidityPressure
High41 °F (Jan 18, 3:00 AM)100% (Jan 24, 7:00 PM)30.42 "Hg (Jan 24, 7:00 PM)
Low0 °F (Jan 17, 1:00 AM)36% (Jan 28, 3:00 PM)29.50 "Hg (Jan 24, 4:00 PM)
Average20 °F74%30.04 "Hg
* Reported Jan 17 1:00 AM — Feb 1 1:00 AM, Hamilton, Weather by CustomWeather, © 2014

Note: Actual official high and low records may vary slightly from our data, if they occured in-between our weather recording intervals... More about our weather records

Advertising

Hamilton weather history for previous 24 hours

 ConditionsComfort  
Time TempWeatherWind HumidityBarometerVisibility
1:00 AM
Feb 1
27 °FLight snow. Mostly cloudy.6 mph80%30.18 "Hg6 mi
12:00 AM27 °FLight snow. Overcast.8 mph80%30.19 "Hg7 mi
11:00 PM
Jan 31
25 °FLight snow. Overcast.9 mph86%30.19 "Hg6 mi
10:00 PM25 °FOvercast.9 mph86%30.19 "Hg15 mi
9:00 PM25 °FOvercast.9 mph86%30.20 "Hg15 mi
8:00 PM25 °FMostly cloudy.14 mph80%30.21 "Hg15 mi
7:00 PM23 °FMostly cloudy.12 mph86%30.22 "Hg15 mi
6:00 PM23 °FMostly cloudy.14 mph80%30.21 "Hg15 mi
5:00 PM23 °FMore clouds than sun.12 mph74%30.20 "Hg15 mi
4:00 PM23 °FPartly sunny.16 mph74%30.21 "Hg15 mi
3:49 PM23 °FBroken clouds.16 mph74%30.21 "Hg15 mi
3:00 PM23 °FSnow flurries. Partly sunny.16 mph68%30.22 "Hg12 mi
2:00 PM23 °FBroken clouds.13 mph68%30.24 "Hg15 mi
1:00 PM21 °FBroken clouds.12 mph68%30.27 "Hg15 mi
12:00 PM19 °FBroken clouds.12 mph68%30.29 "Hg15 mi
11:00 AM18 °FSnow flurries. Broken clouds.10 mph73%30.33 "Hg12 mi
10:00 AM14 °FSnow flurries. Mostly cloudy.8 mph73%30.34 "Hg12 mi
9:00 AM10 °FSnow flurries. Overcast.6 mph72%30.34 "Hg4 mi
8:00 AM9 °FOvercast.3 mph78%30.35 "Hg15 mi
7:00 AM9 °FOvercast.6 mph78%30.36 "Hg15 mi
6:00 AM9 °FLight snow. Overcast.7 mph78%30.34 "Hg15 mi
5:48 AM7 °FLight snow. Overcast.6 mph85%30.34 "Hg15 mi
5:00 AM5 °FOvercast.3 mph85%30.35 "Hg15 mi
4:00 AM5 °FMostly cloudy.5 mph78%30.36 "Hg15 mi
3:00 AM7 °FLight snow. Passing clouds.7 mph78%30.37 "Hg15 mi
2:00 AM3 °FLight snow. Overcast.No wind78%30.40 "Hg15 mi
Weather by CustomWeather, © 2014

See weather overviewHow to use our weather pages